KC0VVH Weather Reports


Display with metric or nautical units.
time (UTC)temp
F
wind
direction
speed
MPH
gust
MPH
rain 1hr
in
rain 24hr
in
rain mn
in
humidity
%
barometer
mb
20260505232703 70 315 2.0 20.0 0.00 0.00 0.00 10 1017.9
20260505231803 71 276 2.0 11.0 0.00 0.00 0.00 8 1017.9
20260505230936 72 268 2.0 11.0 0.00 0.00 0.00 8 1017.9
20260505230015 72 252 2.0 11.0 0.00 0.00 0.00 8 1017.9
20260505225415 72 238 2.0 10.0 0.00 0.00 0.00 8 1017.9
20260505224503 72 272 4.0 13.0 0.00 0.00 0.00 9 1017.9
20260505223636 72 321 3.0 13.0 0.00 0.00 0.00 9 1017.9
20260505222736 71 235 2.0 17.0 0.00 0.00 0.00 9 1017.9
20260505221824 71 294 2.0 8.0 0.00 0.00 0.00 8 1017.9
20260505220915 72 302 2.0 14.0 0.00 0.00 0.00 9 1017.9
20260505220024 71 293 3.0 15.0 0.00 0.00 0.00 8 1017.9
20260505215415 71 300 3.0 15.0 0.00 0.00 0.00 8 1017.9
20260505214515 71 271 3.0 13.0 0.00 0.00 0.00 8 1017.9
20260505213615 72 255 3.0 13.0 0.00 0.00 0.00 7 1017.9
20260505212715 72 290 2.0 10.0 0.00 0.00 0.00 7 1017.9
20260505211815 71 256 2.0 10.0 0.00 0.00 0.00 8 1017.9
20260505210915 72 274 1.0 9.0 0.00 0.00 0.00 9 1017.9
20260505210015 72 229 2.0 9.0 0.00 0.00 0.00 9 1017.9
20260505205415 72 256 3.0 11.0 0.00 0.00 0.00 9 1017.9
20260505204515 72 312 2.0 11.0 0.00 0.00 0.00 10 1017.9
20260505203603 72 282 3.0 12.0 0.00 0.00 0.00 10 1017.9
20260505202715 72 297 2.0 10.0 0.00 0.00 0.00 10 1017.9
20260505201803 72 268 3.0 15.0 0.00 0.00 0.00 11 1017.9
20260505200903 72 245 2.0 13.0 0.00 0.00 0.00 10 1017.9
20260505200003 72 309 4.0 18.0 0.00 0.00 0.00 11 1017.9
20260505195415 72 314 5.0 18.0 0.00 0.00 0.00 11 1017.9
20260505194503 72 227 1.0 10.0 0.00 0.00 0.00 12 1017.9
20260505193615 71 294 2.0 14.0 0.00 0.00 0.00 13 1017.9
20260505192715 71 251 2.0 14.0 0.00 0.00 0.00 13 1017.9
20260505191815 71 315 3.0 16.0 0.00 0.00 0.00 14 1017.9
20260505190903 71 314 2.0 17.0 0.00 0.00 0.00 15 1017.9
20260505190015 70 296 3.0 19.0 0.00 0.00 0.00 16 1017.9
20260505185436 70 220 3.0 10.0 0.00 0.00 0.00 15 1017.9
20260505184515 70 281 3.0 15.0 0.00 0.00 0.00 15 1017.9
20260505183603 70 273 3.0 12.0 0.00 0.00 0.00 15 1017.9
20260505182715 70 324 4.0 15.0 0.00 0.00 0.00 15 1017.9
20260505181824 70 293 3.0 17.0 0.00 0.00 0.00 15 1017.9
20260505180915 69 198 2.0 14.0 0.00 0.00 0.00 16 1017.9
20260505180036 69 218 6.0 16.0 0.00 0.00 0.00 16 1017.9
20260505175403 69 314 5.0 16.0 0.00 0.00 0.00 16 1017.9
20260505174503 68 347 3.0 15.0 0.00 0.00 0.00 21 1017.9
20260505173615 67 91 1.0 6.0 0.00 0.00 0.00 28 1017.9
20260505172715 67 318 2.0 8.0 0.00 0.00 0.00 33 1017.9
20260505171815 67 70 4.0 10.0 0.00 0.00 0.00 33 1017.9
20260505170915 66 71 2.0 9.0 0.00 0.00 0.00 34 1017.9
20260505170003 66 71 2.0 6.0 0.00 0.00 0.00 35 1017.9
20260505165403 67 71 2.0 6.0 0.00 0.00 0.00 36 1017.9
20260505164515 66 71 1.0 5.0 0.00 0.00 0.00 36 1017.9
20260505163615 66 71 1.0 9.0 0.00 0.00 0.00 38 1017.9
20260505162715 65 74 2.0 9.0 0.00 0.00 0.00 36 1017.9
20260505161836 64 75 1.0 7.0 0.00 0.00 0.00 35 1017.9
20260505160924 63 76 1.0 5.0 0.00 0.00 0.00 39 1017.9
20260505152715 62 193 0.0 3.0 0.00 0.00 0.00 46 1017.9
20260505151815 61 193 0.0 3.0 0.00 0.00 0.00 48 1017.9
20260505150915 61 194 1.0 5.0 0.00 0.00 0.00 49 1017.9
20260505124536 50 0 0.0 0.0 0.00 0.00 0.00 58 1017.9
20260505123615 51 0 0.0 0.0 0.00 0.00 0.00 63 1017.9
20260505122703 51 0 0.0 1.0 0.00 0.00 0.00 62 1017.9
20260505121815 51 0 0.0 0.0 0.00 0.00 0.00 47 1017.9
20260505120903 52 205 1.0 5.0 0.00 0.00 0.00 48 1017.9
20260505120015 53 205 1.0 5.0 0.00 0.00 0.00 62 1017.9
20260505115415 52 205 1.0 4.0 0.00 0.00 0.00 63 1017.9
20260505114515 52 205 1.0 5.0 0.00 0.00 0.00 64 1017.9
20260505113615 52 205 1.0 6.0 0.00 0.00 0.00 64 1017.9
20260505112715 52 207 3.0 7.0 0.00 0.00 0.00 64 1017.9
20260505111803 52 214 1.0 7.0 0.00 0.00 0.00 65 1017.9
20260505110915 52 215 0.0 4.0 0.00 0.00 0.00 65 1017.9
20260505101815 53 189 0.0 3.0 0.00 0.00 0.00 62 1017.9
20260505100915 54 189 0.0 3.0 0.00 0.00 0.00 61 1017.9
20260505100024 54 190 0.0 3.0 0.00 0.00 0.00 59 1017.9
20260505095415 55 181 2.0 10.0 0.00 0.00 0.00 59 1017.9
20260505094503 54 202 3.0 9.0 0.00 0.00 0.00 60 1017.9
20260505093615 53 205 1.0 6.0 0.00 0.00 0.00 61 1017.9
20260505092703 53 208 1.0 4.0 0.00 0.00 0.00 62 1017.9
20260505091815 53 211 1.0 5.0 0.00 0.00 0.00 61 1017.9
20260505090915 52 196 2.0 7.0 0.00 0.00 0.00 62 1017.9
20260505090003 51 0 0.0 0.0 0.00 0.00 0.00 59 1017.9
20260505085415 52 0 0.0 0.0 0.00 0.00 0.00 59 1017.9
20260505084515 52 198 0.0 3.0 0.00 0.00 0.00 58 1017.9
20260505083603 52 0 0.0 0.0 0.00 0.00 0.00 60 1017.9
20260505082715 51 0 0.0 0.0 0.00 0.00 0.00 60 1017.9
20260505081803 51 0 0.0 0.0 0.00 0.00 0.00 63 1017.9
20260505080903 51 0 0.0 1.0 0.00 0.00 0.00 66 1017.9
20260505080003 50 0 0.0 1.0 0.00 0.00 0.00 67 1017.9
20260505075415 50 0 0.0 0.0 0.00 0.00 0.00 68 1017.9
20260505074503 50 0 0.0 0.0 0.00 0.00 0.00 67 1017.9
20260505073615 50 0 0.0 0.0 0.00 0.00 0.00 67 1017.9
20260505063603 55 0 0.0 0.0 0.00 0.00 0.00 58 1017.9
20260505062703 56 0 0.0 0.0 0.00 0.00 0.00 57 1017.9
20260505061803 56 198 0.0 2.0 0.00 0.00 0.00 57 1017.9
20260505060903 56 0 0.0 1.0 0.00 0.00 0.00 58 1017.9
20260505060003 56 0 0.0 0.0 0.00 0.00 0.00 57 1017.9
20260505055403 56 0 0.0 0.0 0.00 0.00 0.00 56 1017.9
20260505054503 57 0 0.0 0.0 0.00 0.00 0.00 55 1017.9
20260505053603 58 0 0.0 0.0 0.00 0.00 0.00 53 1017.9
20260505052703 58 0 0.0 0.0 0.00 0.00 0.00 52 1017.9
20260505051803 58 198 0.0 4.0 0.00 0.00 0.00 52 1017.9
20260505050903 59 198 0.0 5.0 0.00 0.00 0.00 52 1017.9
20260505040903 61 0 0.0 1.0 0.00 0.00 0.00 45 1017.9
20260505040003 61 271 0.0 2.0 0.00 0.00 0.00 45 1017.9
20260505035403 61 271 0.0 2.0 0.00 0.00 0.00 45 1017.9
20260505034503 61 271 0.0 4.0 0.00 0.00 0.00 46 1017.9
20260505033603 61 0 0.0 0.0 0.00 0.00 0.00 46 1017.9
20260505032724 61 0 0.0 0.0 0.00 0.00 0.00 46 1017.9
20260505031803 61 0 0.0 0.0 0.00 0.00 0.00 46 1017.9
20260505030903 61 0 0.0 0.0 0.00 0.00 0.00 47 1017.9
20260505030003 61 0 0.0 0.0 0.00 0.00 0.00 47 1017.9
20260505025403 61 0 0.0 0.0 0.00 0.00 0.00 47 1017.9
20260505024503 61 271 0.0 2.0 0.00 0.00 0.00 48 1017.9
20260505023603 61 0 0.0 0.0 0.00 0.00 0.00 48 1017.9
20260505022703 61 332 0.0 5.0 0.00 0.00 0.00 48 1017.9
20260505021803 61 306 2.0 8.0 0.00 0.00 0.00 48 1017.9
20260505020903 62 327 0.0 7.0 0.00 0.00 0.00 47 1017.9
20260505020024 62 265 1.0 6.0 0.00 0.00 0.00 46 1017.9
20260505015403 62 289 1.0 8.0 0.00 0.00 0.00 45 1017.9
20260505014524 63 297 1.0 9.0 0.00 0.00 0.00 45 1017.9
20260505013624 63 283 1.0 14.0 0.00 0.00 0.00 44 1017.9
20260505012703 64 290 3.0 11.0 0.00 0.00 0.00 43 1017.9
20260505011803 65 282 4.0 14.0 0.00 0.00 0.00 41 1017.9
20260505010903 67 294 4.0 20.0 0.00 0.00 0.00 37 1017.9
20260505010024 69 273 1.0 10.0 0.00 0.00 0.00 32 1017.9
20260505005403 69 237 2.0 12.0 0.00 0.00 0.00 30 1017.9
20260505004503 69 191 3.0 12.0 0.00 0.00 0.00 30 1017.9
20260505003603 70 191 5.0 13.0 0.00 0.00 0.00 29 1017.9
20260505002724 71 198 4.0 13.0 0.00 0.00 0.00 28 1017.9
20260505001803 71 240 2.0 10.0 0.00 0.00 0.00 28 1017.9
20260505000903 71 233 1.0 6.0 0.00 0.00 0.00 29 1017.9
20260505000003 70 196 5.0 19.0 0.00 0.00 0.00 29 1017.9
20260504235403 70 196 7.0 19.0 0.00 0.00 0.00 29 1017.9
20260504234503 70 217 2.0 14.0 0.00 0.00 0.00 30 1017.9
20260504233603 70 181 1.0 10.0 0.00 0.00 0.00 33 1017.9